Location: Liberec
(50.7830°N, 15.0500°E)
Time: 16:21:40
(UTC+02:00)

ISS - Visible Passes

Search period start: 26 June 2022 00:00
Search period end: 06 July 2022 00:00
Orbit: 415 x 420 km, 51.6° (Epoch: 26 June)

Date Brightness Start Highest point End Pass type
(mag) Time Alt. Az. Time Alt. Az. Time Alt. Az.
29 Jun -1.4 03:23:29 10° SSE 03:25:09 13° SE 03:26:49 10° ESE visible
01 Jul -2.4 03:24:41 14° SSW 03:26:55 27° SSE 03:29:52 10° E visible
02 Jul -2.1 02:39:13 18° SSE 02:40:03 19° SE 02:42:34 10° E visible
03 Jul -1.5 01:53:54 13° SE 01:53:54 13° SE 01:55:09 10° ESE visible
03 Jul -3.5 03:26:53 14° SW 03:29:41 53° SSE 03:33:01 10° E visible
04 Jul -3.1 02:41:42 25° SSW 02:43:06 39° SSE 02:46:20 10° E visible
05 Jul -2.7 01:56:40 28° SSE 01:56:46 28° SSE 01:59:45 10° E visible
05 Jul -3.8 03:30:01 10° WSW 03:33:24 87° S 03:36:50 10° ENE visible
